[[{"header":{"parameterUnit":"m.s-1","parameterCategory":1,"la1":30.2991,"la2":30.254,"lo1":-89.0895,"lo2":-89.0444,"dy":0.0017,"dx":0.0017,"nx":28,"ny":28,"refTime":"2024-05-20T03:00:00:Z","depth":0,"parameterNumber":2,"parameterNumberName":"U-component_of_WINDS"},"data":[0,0,0,0,0,0,0,0,0,0,0,0,0,0,0,0,0,0,0,0,0,0,0,0,0,0,0,0,0,0,0,0,0,0,0,0,0,0,0,0,0,0,0,0,0,0,0,0,0,0,0,0,0,0,0,0,0,0,-0.5421,-0.542,0,-0.5323,-0.5322,-0.5321,-0.5269,-0.5269,-0.5269,-0.5269,-0.5167,-0.5164,-0.5162,0,0,0,0,0,0,0,0,0,0,0,0,0,-0.5564,-0.5562,-0.5422,-0.542,-0.5419,-0.5323,-0.5322,-0.5321,-0.5269,-0.5269,-0.5269,-0.5268,-0.5168,-0.5164,-0.5161,0,0,0,0,0,0,0,0,0,0,0,0,0,-0.5488,-0.5561,-0.5422,-0.5382,-0.5377,-0.5324,-0.5322,-0.532,-0.5269,-0.5269,-0.5269,-0.5268,-0.5169,-0.5165,-0.5161,-0.514,0,0,-0.5149,-0.5147,0,0,0,0,0,0,0,0,-0.5492,-0.5483,-0.5389,-0.5384,-0.5379,-0.5308,-0.5335,-0.526,-0.5269,-0.531,-0.5268,-0.5268,-0.5214,-0.5206,-0.5188,-0.5135,-0.513,-0.5149,-0.5146,-0.5144,-0.5143,0,0,0,0,0,0,0,-0.5498,-0.5487,-0.5383,-0.5387,-0.5382,-0.5369,-0.5358,-0.5321,-0.5264,-0.5306,-0.5302,-0.5291,-0.5211,-0.5192,-0.5185,-0.5129,-0.5149,-0.5145,-0.5143,-0.5141,-0.5055,-0.5055,0,0,0,0,0,0,-0.5509,-0.5491,-0.5386,-0.538,-0.5437,-0.5366,-0.5354,-0.5331,-0.5264,-0.5254,-0.5292,-0.5289,-0.5199,-0.519,-0.5181,-0.5153,-0.5144,-0.5141,-0.5139,-0.5055,-0.5055,-0.5055,0,0,0,0,0,0,-0.5513,-0.5501,-0.539,-0.5434,-0.5419,-0.5364,-0.5339,-0.5329,-0.531,-0.5253,-0.5243,-0.5282,-0.5198,-0.5187,-0.5151,-0.5149,-0.5139,-0.5135,-0.5055,-0.5055,-0.5055,-0.5096,0,0,0,0,0,0,-0.5517,-0.5502,-0.5493,-0.5435,-0.5417,-0.5361,-0.5339,-0.5327,-0.5303,-0.5299,-0.5242,-0.5232,-0.5197,-0.5157,-0.5147,-0.5143,-0.5132,-0.5055,-0.5055,-0.5055,-0.5094,-0.5097,-0.5099,0,0,0,0,0,-0.5522,-0.5508,-0.5493,-0.548,-0.5405,-0.5361,-0.5351,-0.5311,-0.5303,-0.5294,-0.5258,-0.5234,-0.5151,-0.5154,-0.5142,-0.5137,-0.5055,-0.5055,-0.5055,-0.5093,-0.5096,-0.5099,0,0,0,0,0,0,-0.5566,-0.5499,-0.5482,-0.5448,-0.5411,-0.5352,-0.5339,-0.5316,-0.528,-0.5277,-0.523,-0.5218,-0.5186,-0.5158,-0.5162,-0.5114,-0.51,-0.5098,-0.5133,-0.5136,-0.5139,-0.5146,-0.5129,0,0,0,0,0,-0.5572,-0.5542,-0.5485,-0.5461,-0.5443,-0.5394,-0.5374,-0.5347,-0.5306,-0.529,-0.5251,-0.5212,-0.5177,-0.5155,-0.512,-0.509,-0.5077,-0.5081,-0.5084,-0.5086,-0.5085,-0.5068,-0.507,-0.5056,-0.5056,-0.5056,0,0,-0.5584,-0.5543,-0.5527,-0.5468,-0.5436,-0.5406,-0.5381,-0.535,-0.5328,-0.5285,-0.5248,-0.5219,-0.5172,-0.514,-0.5124,-0.5115,-0.5086,-0.5086,-0.5089,-0.5086,-0.5069,-0.507,-0.5071,-0.5056,-0.5056,-0.5056,0,0,-0.5589,-0.5556,-0.5532,-0.5501,-0.5453,-0.5421,-0.5416,-0.5361,-0.534,-0.5303,-0.5271,-0.5244,-0.5185,-0.5153,-0.513,-0.5127,-0.5103,-0.5116,-0.513,-0.5115,-0.5116,-0.5117,-0.5116,-0.5117,-0.5115,-0.5115,-0.5115,0,-0.5609,-0.5563,-0.5523,-0.5494,-0.547,-0.5431,-0.5407,-0.5379,-0.5322,-0.5306,-0.5298,-0.5225,-0.519,-0.5151,-0.515,-0.5132,-0.5125,-0.5122,-0.5119,-0.5119,-0.512,-0.5119,-0.5119,-0.5117,-0.5117,-0.5117,-0.5117,0,-0.5591,-0.5559,-0.5546,-0.5493,-0.5468,-0.5442,-0.5398,-0.5377,-0.5353,-0.5323,-0.5287,-0.5245,-0.5201,-0.519,-0.5166,-0.5147,-0.5144,-0.5128,-0.5114,-0.5124,-0.5122,-0.5121,-0.512,-0.5119,-0.5119,-0.5118,0,0,-0.5619,-0.5546,-0.5542,-0.5518,-0.5464,-0.5439,-0.5412,-0.537,-0.5353,-0.5316,-0.5293,-0.5245,-0.5231,-0.5204,-0.5176,-0.5163,-0.5164,-0.5149,-0.5147,-0.5154,-0.5143,-0.5155,-0.5155,-0.5149,-0.5149,-0.5149,-0.5147,0,-0.5617,-0.5567,-0.5531,-0.5495,-0.5466,-0.543,-0.5407,-0.5371,-0.5343,-0.5314,-0.5282,-0.525,-0.5233,-0.5217,-0.5202,-0.5167,-0.5162,-0.5167,-0.5127,-0.5126,-0.514,-0.5154,-0.5166,-0.5167,-0.5146,-0.5146,-0.5146,0,-0.5608,-0.5573,-0.5534,-0.5485,-0.5471,-0.5451,-0.5411,-0.5384,-0.5343,-0.5324,-0.5295,-0.5267,-0.5238,-0.5227,-0.5187,-0.5191,-0.5173,-0.5154,-0.5153,-0.5147,-0.5136,-0.5149,-0.5166,-0.5166,-0.5144,-0.5144,-0.5144,0,-0.5633,-0.5577,-0.5546,-0.5527,-0.5468,-0.5455,-0.543,-0.539,-0.5368,-0.5333,-0.5318,-0.528,-0.5259,-0.5231,-0.5194,-0.5189,-0.5157,-0.5143,-0.514,-0.5142,-0.5135,-0.5135,-0.5149,-0.5123,-0.5123,-0.5123,-0.5123,0,-0.5635,-0.5612,-0.5557,-0.5539,-0.5513,-0.5473,-0.5449,-0.5421,-0.5386,-0.5361,-0.5328,-0.5306,-0.5259,-0.5231,-0.5202,-0.5174,-0.5164,-0.5148,-0.514,-0.5151,-0.5153,-0.5138,-0.5137,-0.5123,-0.5123,-0.5123,-0.5123,0,-0.5658,-0.562,-0.5585,-0.5533,-0.552,-0.5504,-0.5459,-0.544,-0.5411,-0.5381,-0.5372,-0.5325,-0.5291,-0.5252,-0.5205,-0.5186,-0.516,-0.5148,-0.5173,-0.5169,-0.5169,-0.517,-0.5172,-0.5171,-0.5147,-0.5147,-0.5148,0,-0.5661,-0.5644,-0.5591,-0.5572,-0.5549,-0.5519,-0.5497,-0.5458,-0.5436,-0.539,-0.5377,-0.5341,-0.531,-0.5257,-0.522,-0.5184,-0.5172,-0.5175,-0.5166,-0.5178,-0.5172,-0.5174,-0.5173,-0.5178,-0.5178,-0.5179,-0.5179,0,-0.5671,-0.5654,-0.5623,-0.5587,-0.5562,-0.5531,-0.5499,-0.5486,-0.544,-0.5417,-0.5383,-0.5359,-0.5312,-0.5277,-0.5237,-0.5212,-0.5188,-0.5183,-0.518,-0.519,-0.5206,-0.5198,-0.518,-0.5182,-0.5182,-0.5182,-0.5181,-0.5181,-0.5684,-0.5668,-0.5628,-0.5596,-0.5568,-0.554,-0.552,-0.5489,-0.5459,-0.5419,-0.5397,-0.5364,-0.5325,-0.527,-0.5245,-0.5219,-0.521,-0.5207,-0.5206,-0.5205,-0.5209,-0.5211,-0.5211,-0.5211,-0.5211,-0.5211,-0.5211,0,-0.5693,-0.5667,-0.5637,-0.5594,-0.5569,-0.555,-0.5514,-0.5495,-0.5466,-0.5432,-0.5403,-0.5365,-0.5331,-0.5292,-0.5256,-0.5242,-0.5231,-0.5234,-0.5235,-0.523,-0.5218,-0.5224,-0.5245,-0.5245,-0.5245,-0.5245,-0.5245,-0.5245,-0.5694,-0.5666,-0.5644,-0.5602,-0.5575,-0.5543,-0.5524,-0.5498,-0.5471,-0.543,-0.5402,-0.5377,-0.5342,-0.5304,-0.5273,-0.5262,-0.525,-0.5257,-0.5244,-0.5233,-0.523,-0.5227,-0.5233,-0.5255,-0.5255,-0.5258,-0.5258,-0.5258]},{"header":{"parameterUnit":"m.s-1","parameterCategory":1,"la1":30.2991,"la2":30.254,"lo1":-89.0895,"lo2":-89.0444,"dy":0.0017,"dx":0.0017,"nx":28,"ny":28,"refTime":"2024-05-20T03:00:00:Z","depth":0,"parameterNumber":3,"parameterNumberName":"V-component_of_WINDS"},"data":[0,0,0,0,0,0,0,0,0,0,0,0,0,0,0,0,0,0,0,0,0,0,0,0,0,0,0,0,0,0,0,0,0,0,0,0,0,0,0,0,0,0,0,0,0,0,0,0,0,0,0,0,0,0,0,0,0,0,3.1373,3.1373,0,3.1392,3.1392,3.1392,3.137,3.1369,3.1369,3.1368,3.1384,3.1385,3.1386,0,0,0,0,0,0,0,0,0,0,0,0,0,3.1314,3.1315,3.1373,3.1373,3.1374,3.1392,3.1392,3.1392,3.137,3.1369,3.1368,3.1367,3.1383,3.1385,3.1386,0,0,0,0,0,0,0,0,0,0,0,0,0,3.1337,3.1316,3.1373,3.1365,3.1365,3.1392,3.1392,3.1392,3.1371,3.1369,3.1368,3.1367,3.1383,3.1384,3.1386,3.1421,0,0,3.1392,3.1392,0,0,0,0,0,0,0,0,3.1336,3.1339,3.1366,3.1366,3.1365,3.1377,3.1377,3.1402,3.1371,3.1368,3.1368,3.1366,3.1382,3.1384,3.139,3.1422,3.1423,3.1392,3.1393,3.1394,3.1394,0,0,0,0,0,0,0,3.1334,3.1338,3.138,3.1366,3.1366,3.1359,3.1361,3.1381,3.1382,3.1368,3.1367,3.1369,3.1382,3.1388,3.139,3.1423,3.1392,3.1393,3.1394,3.1395,3.148,3.1481,0,0,0,0,0,0,3.1334,3.1337,3.138,3.1381,3.1347,3.1361,3.1363,3.1375,3.1381,3.1381,3.137,3.1368,3.1386,3.1388,3.1391,3.1429,3.1394,3.1395,3.1396,3.1479,3.1481,3.1482,0,0,0,0,0,0,3.1333,3.1338,3.1379,3.1359,3.1363,3.1363,3.1376,3.1376,3.1382,3.1383,3.1383,3.1377,3.1385,3.1388,3.1413,3.1429,3.1396,3.1398,3.1478,3.148,3.1481,3.1508,0,0,0,0,0,0,3.1331,3.1338,3.1352,3.1359,3.1365,3.1403,3.1378,3.1377,3.1386,3.1383,3.1389,3.1389,3.1384,3.1411,3.1415,3.1431,3.1399,3.1476,3.1478,3.1481,3.1505,3.151,3.1515,0,0,0,0,0,3.1329,3.1359,3.1353,3.1359,3.1383,3.1404,3.1407,3.1401,3.1387,3.1401,3.1401,3.1389,3.1428,3.1413,3.1418,3.1435,3.1475,3.1478,3.148,3.1503,3.1509,3.1514,0,0,0,0,0,0,3.1354,3.136,3.1353,3.1387,3.1395,3.14,3.1417,3.1408,3.142,3.1417,3.1409,3.141,3.1436,3.1439,3.1423,3.1467,3.1449,3.1452,3.1465,3.147,3.1475,3.1472,3.14,0,0,0,0,0,3.1364,3.1381,3.1385,3.1414,3.1419,3.1417,3.1426,3.1421,3.1429,3.1432,3.1434,3.1441,3.1454,3.1463,3.1475,3.1507,3.1506,3.152,3.1525,3.1529,3.1531,3.1544,3.155,3.1491,3.1491,3.1491,0,0,3.1383,3.1388,3.14,3.1419,3.1425,3.1441,3.142,3.1439,3.145,3.1434,3.1457,3.1459,3.1466,3.1493,3.1505,3.1496,3.1547,3.1532,3.1535,3.1535,3.1548,3.1553,3.1558,3.1493,3.1492,3.1492,0,0,3.1426,3.1434,3.1456,3.1462,3.1471,3.147,3.1475,3.1482,3.1482,3.1505,3.1492,3.1505,3.1529,3.1534,3.1539,3.1582,3.157,3.1586,3.1609,3.1622,3.1626,3.163,3.1642,3.1647,3.1589,3.1589,3.1589,0,3.1448,3.1474,3.1469,3.1488,3.1496,3.1483,3.1504,3.151,3.1522,3.1527,3.1517,3.1544,3.1548,3.1575,3.1585,3.1591,3.1595,3.1584,3.1626,3.163,3.1634,3.1645,3.165,3.1591,3.1591,3.1591,3.159,0,3.1499,3.1517,3.1534,3.1546,3.1555,3.1576,3.1573,3.1583,3.1577,3.1576,3.1598,3.1602,3.1614,3.162,3.1615,3.1645,3.1639,3.1628,3.1608,3.1641,3.1652,3.1656,3.1593,3.1593,3.1592,3.1592,0,0,3.1557,3.1565,3.1571,3.1575,3.1583,3.1596,3.1615,3.1627,3.1634,3.1643,3.1656,3.1676,3.1665,3.1672,3.1667,3.1679,3.1708,3.1666,3.1665,3.167,3.1738,3.1744,3.1749,3.1701,3.1702,3.1703,3.1736,0,3.1597,3.163,3.1626,3.1657,3.1671,3.1658,3.1674,3.168,3.1679,3.169,3.1689,3.1702,3.1689,3.1692,3.1703,3.1702,3.1721,3.17,3.1711,3.1712,3.1707,3.1755,3.1762,3.1793,3.174,3.1741,3.1742,0,3.1648,3.1658,3.169,3.1694,3.1699,3.1714,3.1723,3.1735,3.174,3.1738,3.1745,3.1737,3.1753,3.1736,3.1757,3.1743,3.1747,3.1747,3.1748,3.1747,3.1727,3.1752,3.1803,3.1807,3.1749,3.1748,3.1748,0,3.1682,3.1704,3.1725,3.173,3.1735,3.1745,3.1748,3.1752,3.1759,3.1767,3.177,3.178,3.1785,3.1792,3.1786,3.1774,3.1807,3.179,3.1804,3.1804,3.1809,3.1808,3.1859,3.1817,3.1817,3.1817,3.1817,0,3.1725,3.1745,3.174,3.1753,3.1773,3.1768,3.1788,3.1789,3.1793,3.1804,3.1795,3.1805,3.1799,3.1808,3.1804,3.182,3.1823,3.1821,3.1819,3.182,3.182,3.1821,3.1817,3.1818,3.1818,3.1818,3.1818,0,3.1766,3.1765,3.1786,3.1789,3.1791,3.1805,3.1807,3.1818,3.1817,3.1831,3.1834,3.1832,3.1842,3.1838,3.185,3.1847,3.1867,3.1864,3.1865,3.1863,3.1876,3.1874,3.1927,3.1932,3.189,3.189,3.1891,0,3.1792,3.1806,3.1811,3.1818,3.1821,3.1833,3.184,3.1835,3.1841,3.1848,3.1857,3.1867,3.1874,3.1892,3.189,3.1898,3.1893,3.1911,3.1894,3.1894,3.189,3.1888,3.1888,3.1914,3.1914,3.1915,3.1915,0,3.1837,3.1835,3.1845,3.1855,3.1863,3.187,3.1876,3.1882,3.1877,3.1885,3.1896,3.1901,3.1913,3.1922,3.1929,3.193,3.192,3.1921,3.1924,3.1924,3.1923,3.192,3.1871,3.1919,3.1918,3.1918,3.1918,3.1918,3.1869,3.188,3.1884,3.1895,3.1899,3.1905,3.1914,3.1914,3.1923,3.1932,3.1929,3.194,3.1944,3.1952,3.1954,3.1962,3.1955,3.1961,3.1961,3.1962,3.1963,3.1924,3.1964,3.1964,3.1964,3.1964,3.1964,0,3.191,3.1912,3.1923,3.1931,3.1939,3.1932,3.1937,3.1944,3.1955,3.1959,3.1966,3.1978,3.1986,3.1985,3.1993,3.1999,3.1995,3.2001,3.1999,3.1999,3.197,3.1965,3.2004,3.2004,3.2004,3.2004,3.2004,3.2004,3.1933,3.195,3.1948,3.1967,3.1969,3.198,3.1984,3.1988,3.1991,3.2004,3.2011,3.2011,3.2013,3.202,3.2027,3.2026,3.2028,3.2035,3.2033,3.2005,3.2001,3.1997,3.1992,3.2036,3.2036,3.206,3.206,3.2061]}]]